Powrót do katalogu

SL-14 DEB

AktywnyPO
NORAD 19143·DEBRIS·🇷🇺 Russia

Wystrzelony Oct 26, 1978 z Plesetsk Cosmodrome

Loading…

Następne Przeloty (najbliższe 24 godziny)

TLE

ŚwieżeSource: Space-Track

Epoka: Sep 14, 2026, 14:50 UTC

1 19143U 78100P   26257.61808433  .00002061  00000-0  83182-2 0  9992
2 19143  81.6952   7.5113 0324716 213.3087 158.5091 12.70492146769147

Śledź SL-14 DEB w czasie rzeczywistym z AllMySat

Download on the App Store